This is the latest recevied weather packets stored in our database for station/object K7TUS-6. If no packets are shown the sender has not sent any weather packets the latest 10 day(s).
| Time | Temp. | Humidity | Pressure | Rain* | Wind** | Luminosity | Snow |
|---|---|---|---|---|---|---|---|
| 1777259704 | 3.33° C | 23% | 977.5 hPa | - | - | - | - |
| 1777259404 | 3.33° C | 23% | 977.5 hPa | - | - | - | - |
| 1777258508 | 3.33° C | 22% | 976.4 hPa | - | - | - | - |
| 1777257606 | 3.89° C | 23% | 977.1 hPa | - | - | - | - |
| 1777256404 | 4.44° C | 20% | 977.2 hPa | - | - | - | - |
| 1777255808 | 4.44° C | 20% | 976.3 hPa | - | - | - | - |
| 1777235406 | 7.78° C | 28% | 977.3 hPa | - | - | - | - |
| 1777234805 | 7.22° C | 30% | 976.8 hPa | - | - | - | - |
| 1777233308 | 8.89° C | 22% | 976.6 hPa | - | - | - | - |
| 1777232707 | 8.33° C | 27% | 977.1 hPa | - | - | - | - |
| 1777230608 | 6.67° C | 29% | 977.7 hPa | - | - | - | - |
| 1777230307 | 6.11° C | 27% | 975.8 hPa | - | - | - | - |
| 1777227306 | 7.78° C | 25% | 976.1 hPa | - | - | - | - |
| 1777224907 | 6.67° C | 23% | 976.2 hPa | - | - | - | - |
| 1777223103 | 8.33° C | 19% | 976 hPa | - | - | - | - |
| 1777222207 | 8.89° C | 19% | 975.4 hPa | - | - | - | - |
| 1777216803 | 6.11° C | 18% | 974.6 hPa | - | - | - | - |
| 1777215907 | 5.56° C | 18% | 974.6 hPa | - | - | - | - |
| 1777215306 | 5.56° C | 21% | 973.2 hPa | - | - | - | - |
| 1777213803 | 5° C | 22% | 973.6 hPa | - | - | - | - |
| 1777212907 | 5.56° C | 16% | 973.2 hPa | - | - | - | - |
| 1777212606 | 5.56° C | 17% | 972.9 hPa | - | - | - | - |
| 1777209305 | 4.44° C | 16% | 973.7 hPa | - | - | - | - |
| 1777209004 | 3.89° C | 15% | 973.5 hPa | - | - | - | - |
| 1777206004 | 3.89° C | 10% | 972.8 hPa | - | - | - | - |
* Rain since midnight (hover to see other rain measurements)
** Current wind speed in m/s (hover to see current wind gust speed)